User: anonymous   Login
Location: Noordwijk
(52.2400°N, 4.4500°E)
Time: 08:30:58
(UTC+00:00)
Language:

CUTE 1.7 + AOD 2 - Orbit

View from above orbital plane
View from above orbital plane
View from above satellite
View from above satellite

Ground track
Ground track

The orbit data is extracted from the following two-line orbital elements,

1 32785U 08021C   22330.69190682  .00001758  00000-0  18638-3 0  9997
2 32785  97.6799 296.6492 0014143  59.3093 300.9517 14.90277840790647
Epoch (UTC): 26 November 2022 16:36:20
Eccentricity: 0.0014143
inclination: 97.6799°
perigee height: 587 km
apogee height: 607 km
right ascension of ascending node: 296.6492°
argument of perigee: 59.3093°
revolutions per day: 14.90277840
mean anomaly at epoch: 300.9517°
orbit number at epoch: 79064

The dashed part of the orbit path shows where the satellite is in the earth's shadow,  

DLR